This is the latest recevied weather packets stored in our database for station/object WC4PEM-14. If no packets are shown the sender has not sent any weather packets the latest 10 day(s).
| Time | Temp. | Humidity | Pressure | Rain* | Wind** | Luminosity | Snow |
|---|---|---|---|---|---|---|---|
| 1777787142 | 18.89° C | 94% | 1014.3 hPa | 2.29 mm | - | - | - |
| 1777786993 | 18.89° C | 94% | 1014.3 hPa | 2.29 mm | - | - | - |
| 1777786693 | 18.89° C | 94% | 1014.2 hPa | 2.54 mm | - | - | - |
| 1777786599 | 18.89° C | 94% | 1014.3 hPa | 2.54 mm | - | - | - |
| 1777786393 | 18.89° C | 94% | 1014.3 hPa | 2.54 mm | - | - | - |
| 1777786093 | 19.44° C | 94% | 1014.3 hPa | 2.54 mm | - | - | - |
| 1777785999 | 19.44° C | 94% | 1014.6 hPa | 2.29 mm | - | - | - |
| 1777785793 | 19.44° C | 94% | 1014.6 hPa | 2.29 mm | - | - | - |
| 1777785493 | 19.44° C | 93% | 1014.3 hPa | 2.29 mm | - | - | - |
| 1777785193 | 20° C | 93% | 1014.4 hPa | 2.29 mm | - | - | - |
| 1777784893 | 20° C | 93% | 1014.3 hPa | 2.03 mm | - | - | - |
| 1777784840 | 20.56° C | 93% | 1014.6 hPa | 1.78 mm | - | - | - |
| 1777784593 | 20.56° C | 93% | 1014.6 hPa | 1.78 mm | - | - | - |
| 1777784532 | 20.56° C | 93% | 1014.5 hPa | 1.78 mm | - | - | - |
| 1777784381 | 21.11° C | 93% | 1014.3 hPa | 1.27 mm | - | - | - |
| 1777784293 | 20.56° C | 93% | 1014.5 hPa | 1.78 mm | - | - | - |
| 1777783993 | 21.11° C | 93% | 1014.3 hPa | 1.27 mm | - | - | - |
| 1777783693 | 21.67° C | 94% | 1014.3 hPa | 0.51 mm | - | - | - |
| 1777783568 | 21.67° C | 94% | 1014.1 hPa | 0.25 mm | - | - | - |
| 1777783393 | 21.67° C | 94% | 1014.1 hPa | 0.25 mm | - | - | - |
| 1777783355 | 21.67° C | 94% | 1014 hPa | 0 mm | - | - | - |
| 1777783093 | 21.67° C | 94% | 1014 hPa | 0 mm | - | - | - |
| 1777782793 | 21.67° C | 94% | 1013.9 hPa | 0 mm | - | - | - |
| 1777782493 | 21.67° C | 93% | 1013.7 hPa | 0 mm | - | - | - |
| 1777782455 | 21.67° C | 93% | 1013.8 hPa | 0 mm | - | - | - |
* Rain latest hour (hover to see other rain measurements)
** Current wind speed in m/s (hover to see current wind gust speed)